| time (UTC) | temp F | wind direction | speed MPH | gust MPH | rain 1hr in | rain 24hr in | rain mn in | humidity % | barometer mb |
| 20260509161704 | 72 | 24 | 3.0 | 12.0 | 0.00 | 0.00 | 0.00 | 19 | 1015.4 |
| 20260509161204 | 72 | 348 | 5.0 | 12.0 | 0.00 | 0.00 | 0.00 | 18 | 1015.4 |
| 20260509160704 | 71 | 319 | 0.0 | 6.0 | 0.00 | 0.00 | 0.00 | 24 | 1015.4 |
| 20260509160204 | 71 | 276 | 2.0 | 5.0 | 0.00 | 0.00 | 0.00 | 19 | 1015.4 |
| 20260509155704 | 71 | 337 | 2.0 | 8.0 | 0.00 | 0.00 | 0.00 | 21 | 1015.5 |
| 20260509155204 | 71 | 279 | 2.0 | 7.0 | 0.00 | 0.00 | 0.00 | 20 | 1015.4 |
| 20260509154704 | 70 | 316 | 1.0 | 3.0 | 0.00 | 0.00 | 0.00 | 23 | 1015.4 |
| 20260509153705 | 69 | 24 | 1.0 | 6.0 | 0.00 | 0.00 | 0.00 | 22 | 1015.4 |
| 20260509153204 | 69 | 347 | 3.0 | 10.0 | 0.00 | 0.00 | 0.00 | 20 | 1015.5 |
| 20260509152704 | 69 | 355 | 2.0 | 9.0 | 0.00 | 0.00 | 0.00 | 21 | 1015.5 |
| 20260509152204 | 68 | 273 | 2.0 | 8.0 | 0.00 | 0.00 | 0.00 | 23 | 1015.5 |
| 20260509151704 | 67 | 244 | 0.0 | 15.0 | 0.00 | 0.00 | 0.00 | 26 | 1015.5 |
| 20260509151204 | 67 | 356 | 1.0 | 10.0 | 0.00 | 0.00 | 0.00 | 25 | 1015.7 |
| 20260509150704 | 66 | 50 | 2.0 | 8.0 | 0.00 | 0.00 | 0.00 | 28 | 1015.6 |
| 20260509150204 | 64 | 262 | 2.0 | 8.0 | 0.00 | 0.00 | 0.00 | 29 | 1015.6 |
| 20260509145704 | 63 | 176 | 1.0 | 5.0 | 0.00 | 0.00 | 0.00 | 30 | 1015.6 |
| 20260509145204 | 63 | 127 | 0.0 | 2.0 | 0.00 | 0.00 | 0.00 | 31 | 1015.6 |
| 20260509144704 | 62 | 110 | 0.0 | 2.0 | 0.00 | 0.00 | 0.00 | 32 | 1015.7 |
| 20260509144204 | 61 | 110 | 1.0 | 2.0 | 0.00 | 0.00 | 0.00 | 33 | 1015.7 |
| 20260509143703 | 61 | 109 | 1.0 | 3.0 | 0.00 | 0.00 | 0.00 | 35 | 1015.6 |
| 20260509143204 | 61 | 351 | 0.0 | 1.0 | 0.00 | 0.00 | 0.00 | 38 | 1015.8 |
| 20260509142703 | 60 | 344 | 0.0 | 2.0 | 0.00 | 0.00 | 0.00 | 36 | 1015.7 |
| 20260509142204 | 60 | 344 | 1.0 | 3.0 | 0.00 | 0.00 | 0.00 | 35 | 1015.7 |
| 20260509141704 | 60 | 44 | 1.0 | 3.0 | 0.00 | 0.00 | 0.00 | 34 | 1015.6 |
| 20260509140704 | 59 | 44 | 2.0 | 12.0 | 0.00 | 0.00 | 0.00 | 34 | 1015.7 |
| 20260509140204 | 56 | 68 | 7.0 | 12.0 | 0.00 | 0.00 | 0.00 | 39 | 1015.6 |
| 20260509135704 | 54 | 179 | 1.0 | 3.0 | 0.00 | 0.00 | 0.00 | 49 | 1015.8 |
| 20260509135204 | 54 | 251 | 0.0 | 1.0 | 0.00 | 0.00 | 0.00 | 56 | 1015.9 |
| 20260509133204 | 54 | 251 | 0.0 | 2.0 | 0.00 | 0.00 | 0.00 | 53 | 1015.7 |
| 20260509132704 | 54 | 251 | 0.0 | 0.0 | 0.00 | 0.00 | 0.00 | 53 | 1015.7 |
| 20260509132204 | 54 | 251 | 0.0 | 2.0 | 0.00 | 0.00 | 0.00 | 53 | 1015.7 |
| 20260509131704 | 54 | 251 | 1.0 | 2.0 | 0.00 | 0.00 | 0.00 | 52 | 1015.6 |
| 20260509131204 | 55 | 251 | 0.0 | 1.0 | 0.00 | 0.00 | 0.00 | 52 | 1015.6 |
| 20260509130704 | 55 | 251 | 0.0 | 1.0 | 0.00 | 0.00 | 0.00 | 52 | 1015.6 |
| 20260509130204 | 55 | 251 | 0.0 | 3.0 | 0.00 | 0.00 | 0.00 | 49 | 1015.4 |
| 20260509125704 | 55 | 251 | 0.0 | 0.0 | 0.00 | 0.00 | 0.00 | 49 | 1015.4 |
| 20260509124704 | 56 | 251 | 0.0 | 1.0 | 0.00 | 0.00 | 0.00 | 46 | 1015.3 |
| 20260509124204 | 56 | 251 | 0.0 | 1.0 | 0.00 | 0.00 | 0.00 | 45 | 1015.2 |
| 20260509123704 | 55 | 251 | 0.0 | 0.0 | 0.00 | 0.00 | 0.00 | 44 | 1015.0 |
| 20260509123204 | 55 | 251 | 0.0 | 0.0 | 0.00 | 0.00 | 0.00 | 44 | 1015.0 |
| 20260509122704 | 55 | 251 | 0.0 | 0.0 | 0.00 | 0.00 | 0.00 | 43 | 1015.0 |
| 20260509121703 | 54 | 264 | 2.0 | 7.0 | 0.00 | 0.00 | 0.00 | 46 | 1014.8 |
| 20260509121203 | 53 | 213 | 0.0 | 1.0 | 0.00 | 0.00 | 0.00 | 47 | 1014.9 |
| 20260509120704 | 52 | 213 | 0.0 | 5.0 | 0.00 | 0.00 | 0.00 | 49 | 1014.8 |
| 20260509120204 | 51 | 257 | 2.0 | 8.0 | 0.00 | 0.00 | 0.00 | 50 | 1014.7 |
| 20260509115703 | 50 | 265 | 1.0 | 3.0 | 0.00 | 0.00 | 0.00 | 54 | 1014.7 |
| 20260509115204 | 49 | 249 | 2.0 | 3.0 | 0.00 | 0.00 | 0.00 | 58 | 1014.7 |
| 20260509114204 | 49 | 206 | 1.0 | 3.0 | 0.00 | 0.00 | 0.00 | 61 | 1014.7 |
| 20260509113703 | 49 | 205 | 1.0 | 2.0 | 0.00 | 0.00 | 0.00 | 60 | 1014.6 |
| 20260509113204 | 49 | 205 | 1.0 | 3.0 | 0.00 | 0.00 | 0.00 | 60 | 1014.5 |
| 20260509112704 | 50 | 189 | 0.0 | 0.0 | 0.00 | 0.00 | 0.00 | 60 | 1014.4 |
| 20260509112204 | 50 | 189 | 0.0 | 1.0 | 0.00 | 0.00 | 0.00 | 59 | 1014.4 |
| 20260509111704 | 50 | 189 | 0.0 | 2.0 | 0.00 | 0.00 | 0.00 | 59 | 1014.3 |
| 20260509111203 | 50 | 189 | 0.0 | 3.0 | 0.00 | 0.00 | 0.00 | 58 | 1014.2 |
| 20260509110704 | 50 | 189 | 1.0 | 2.0 | 0.00 | 0.00 | 0.00 | 58 | 1014.2 |
| 20260509110203 | 51 | 189 | 1.0 | 2.0 | 0.00 | 0.00 | 0.00 | 58 | 1014.4 |
| 20260509105703 | 51 | 189 | 0.0 | 1.0 | 0.00 | 0.00 | 0.00 | 57 | 1014.4 |
| 20260509105204 | 51 | 189 | 0.0 | 2.0 | 0.00 | 0.00 | 0.00 | 56 | 1014.4 |
| 20260509104205 | 52 | 189 | 0.0 | 2.0 | 0.00 | 0.00 | 0.00 | 55 | 1014.2 |
| 20260509103704 | 52 | 188 | 0.0 | 1.0 | 0.00 | 0.00 | 0.00 | 54 | 1014.3 |
| 20260509102704 | 52 | 188 | 0.0 | 0.0 | 0.00 | 0.00 | 0.00 | 54 | 1014.2 |
| 20260509102203 | 52 | 188 | 0.0 | 6.0 | 0.00 | 0.00 | 0.00 | 55 | 1014.3 |
| 20260509101704 | 52 | 113 | 1.0 | 3.0 | 0.00 | 0.00 | 0.00 | 55 | 1014.2 |
| 20260509101203 | 51 | 178 | 0.0 | 2.0 | 0.00 | 0.00 | 0.00 | 55 | 1014.4 |
| 20260509100704 | 51 | 178 | 0.0 | 2.0 | 0.00 | 0.00 | 0.00 | 57 | 1014.4 |
| 20260509095704 | 51 | 269 | 1.0 | 6.0 | 0.00 | 0.00 | 0.00 | 59 | 1014.5 |
| 20260509095205 | 50 | 214 | 1.0 | 5.0 | 0.00 | 0.00 | 0.00 | 60 | 1014.4 |
| 20260509094704 | 50 | 194 | 0.0 | 1.0 | 0.00 | 0.00 | 0.00 | 60 | 1014.4 |
| 20260509094204 | 50 | 194 | 0.0 | 0.0 | 0.00 | 0.00 | 0.00 | 61 | 1014.5 |
| 20260509093204 | 50 | 194 | 0.0 | 0.0 | 0.00 | 0.00 | 0.00 | 62 | 1014.5 |
| 20260509092704 | 50 | 194 | 0.0 | 1.0 | 0.00 | 0.00 | 0.00 | 64 | 1014.4 |
| 20260509092203 | 50 | 194 | 0.0 | 1.0 | 0.00 | 0.00 | 0.00 | 66 | 1014.4 |
| 20260509091204 | 50 | 194 | 0.0 | 0.0 | 0.00 | 0.00 | 0.00 | 68 | 1014.3 |
| 20260509090704 | 50 | 194 | 0.0 | 1.0 | 0.00 | 0.00 | 0.00 | 69 | 1014.2 |
| 20260509090205 | 50 | 194 | 0.0 | 2.0 | 0.00 | 0.00 | 0.00 | 70 | 1014.2 |
| 20260509085704 | 50 | 194 | 0.0 | 1.0 | 0.00 | 0.00 | 0.00 | 69 | 1014.2 |
| 20260509085203 | 50 | 194 | 0.0 | 1.0 | 0.00 | 0.00 | 0.00 | 69 | 1014.1 |
| 20260509084704 | 50 | 194 | 0.0 | 0.0 | 0.00 | 0.00 | 0.00 | 69 | 1014.0 |
| 20260509083704 | 50 | 194 | 0.0 | 0.0 | 0.00 | 0.00 | 0.00 | 69 | 1014.0 |
| 20260509083203 | 50 | 194 | 0.0 | 2.0 | 0.00 | 0.00 | 0.00 | 69 | 1014.0 |
| 20260509082704 | 50 | 194 | 0.0 | 0.0 | 0.00 | 0.00 | 0.00 | 70 | 1014.0 |
| 20260509082204 | 50 | 194 | 0.0 | 0.0 | 0.00 | 0.00 | 0.00 | 70 | 1014.0 |
| 20260509080704 | 50 | 194 | 0.0 | 3.0 | 0.00 | 0.00 | 0.00 | 71 | 1014.0 |
| 20260509080203 | 50 | 194 | 1.0 | 3.0 | 0.00 | 0.00 | 0.00 | 71 | 1014.0 |
| 20260509075704 | 50 | 184 | 0.0 | 1.0 | 0.00 | 0.00 | 0.00 | 71 | 1014.0 |
| 20260509075204 | 51 | 184 | 0.0 | 0.0 | 0.00 | 0.00 | 0.00 | 70 | 1014.1 |
| 20260509074704 | 51 | 184 | 0.0 | 2.0 | 0.00 | 0.00 | 0.00 | 70 | 1014.2 |
| 20260509074203 | 51 | 184 | 0.0 | 0.0 | 0.00 | 0.00 | 0.00 | 70 | 1014.3 |
| 20260509073704 | 51 | 184 | 0.0 | 0.0 | 0.00 | 0.00 | 0.00 | 69 | 1014.3 |
| 20260509073204 | 51 | 184 | 0.0 | 0.0 | 0.00 | 0.00 | 0.00 | 69 | 1014.3 |
| 20260509072704 | 51 | 184 | 0.0 | 0.0 | 0.00 | 0.00 | 0.00 | 68 | 1014.2 |
| 20260509072203 | 52 | 184 | 0.0 | 0.0 | 0.00 | 0.00 | 0.00 | 68 | 1014.2 |
| 20260509071703 | 52 | 184 | 0.0 | 0.0 | 0.00 | 0.00 | 0.00 | 68 | 1014.3 |
| 20260509070703 | 52 | 184 | 0.0 | 0.0 | 0.00 | 0.00 | 0.00 | 68 | 1014.3 |
| 20260509070203 | 52 | 184 | 0.0 | 0.0 | 0.00 | 0.00 | 0.00 | 67 | 1014.3 |
| 20260509065704 | 52 | 184 | 0.0 | 0.0 | 0.00 | 0.00 | 0.00 | 67 | 1014.4 |
| 20260509064703 | 53 | 184 | 1.0 | 3.0 | 0.00 | 0.00 | 0.00 | 66 | 1014.5 |
| 20260509064203 | 53 | 232 | 0.0 | 0.0 | 0.00 | 0.00 | 0.00 | 66 | 1014.6 |
| 20260509063704 | 53 | 232 | 0.0 | 0.0 | 0.00 | 0.00 | 0.00 | 66 | 1014.6 |
| 20260509062703 | 54 | 232 | 0.0 | 0.0 | 0.00 | 0.00 | 0.00 | 64 | 1014.7 |
| 20260509062203 | 54 | 232 | 0.0 | 0.0 | 0.00 | 0.00 | 0.00 | 63 | 1014.7 |
| 20260509061705 | 54 | 232 | 0.0 | 1.0 | 0.00 | 0.00 | 0.00 | 61 | 1014.7 |
| 20260509061204 | 55 | 232 | 0.0 | 0.0 | 0.00 | 0.00 | 0.00 | 61 | 1014.8 |
| 20260509060704 | 55 | 232 | 0.0 | 0.0 | 0.00 | 0.00 | 0.00 | 60 | 1014.9 |
| 20260509060203 | 56 | 232 | 0.0 | 0.0 | 0.00 | 0.00 | 0.00 | 59 | 1014.9 |
| 20260509055703 | 56 | 232 | 0.0 | 0.0 | 0.00 | 0.00 | 0.02 | 59 | 1015.0 |
| 20260509055204 | 56 | 232 | 0.0 | 0.0 | 0.00 | 0.00 | 0.02 | 58 | 1015.0 |
| 20260509054704 | 57 | 232 | 0.0 | 0.0 | 0.00 | 0.00 | 0.02 | 57 | 1015.0 |
| 20260509053703 | 57 | 232 | 0.0 | 0.0 | 0.00 | 0.00 | 0.02 | 57 | 1015.1 |
| 20260509053203 | 57 | 232 | 0.0 | 0.0 | 0.00 | 0.00 | 0.02 | 57 | 1015.1 |
| 20260509052703 | 57 | 232 | 0.0 | 1.0 | 0.00 | 0.00 | 0.02 | 57 | 1015.2 |
| 20260509052204 | 57 | 240 | 0.0 | 1.0 | 0.00 | 0.00 | 0.02 | 57 | 1015.2 |
| 20260509051704 | 57 | 221 | 1.0 | 5.0 | 0.00 | 0.00 | 0.02 | 57 | 1015.2 |
| 20260509051204 | 56 | 194 | 1.0 | 5.0 | 0.00 | 0.00 | 0.02 | 58 | 1015.2 |
| 20260509050703 | 56 | 137 | 1.0 | 3.0 | 0.00 | 0.00 | 0.02 | 58 | 1015.2 |
| 20260509050204 | 56 | 169 | 1.0 | 3.0 | 0.00 | 0.00 | 0.02 | 59 | 1015.3 |
| 20260509045704 | 56 | 199 | 1.0 | 7.0 | 0.00 | 0.00 | 0.02 | 60 | 1015.4 |
| 20260509045203 | 55 | 178 | 0.0 | 2.0 | 0.00 | 0.00 | 0.02 | 60 | 1015.4 |
| 20260509044703 | 56 | 121 | 0.0 | 2.0 | 0.00 | 0.00 | 0.02 | 60 | 1015.6 |
| 20260509044204 | 56 | 34 | 0.0 | 0.0 | 0.00 | 0.00 | 0.02 | 60 | 1015.8 |
| 20260509043704 | 56 | 34 | 0.0 | 0.0 | 0.00 | 0.00 | 0.02 | 60 | 1015.8 |
| 20260509042703 | 56 | 34 | 0.0 | 0.0 | 0.00 | 0.00 | 0.02 | 59 | 1015.9 |
| 20260509042204 | 57 | 34 | 0.0 | 0.0 | 0.00 | 0.00 | 0.02 | 59 | 1016.0 |
| 20260509041703 | 57 | 34 | 0.0 | 0.0 | 0.00 | 0.00 | 0.02 | 58 | 1016.0 |
| 20260509041203 | 57 | 34 | 0.0 | 0.0 | 0.00 | 0.00 | 0.02 | 58 | 1016.0 |
| 20260509040704 | 57 | 34 | 0.0 | 0.0 | 0.00 | 0.00 | 0.02 | 58 | 1016.0 |
| 20260509040204 | 57 | 34 | 0.0 | 0.0 | 0.00 | 0.00 | 0.02 | 57 | 1016.1 |
| 20260509035703 | 58 | 34 | 0.0 | 0.0 | 0.00 | 0.00 | 0.02 | 56 | 1016.1 |
| 20260509035203 | 58 | 34 | 0.0 | 0.0 | 0.00 | 0.00 | 0.02 | 56 | 1016.1 |
| 20260509034703 | 58 | 34 | 0.0 | 0.0 | 0.00 | 0.00 | 0.02 | 56 | 1016.1 |
| 20260509034203 | 58 | 34 | 0.0 | 0.0 | 0.00 | 0.00 | 0.02 | 56 | 1016.2 |
| 20260509033704 | 59 | 34 | 0.0 | 0.0 | 0.00 | 0.00 | 0.02 | 56 | 1016.3 |
| 20260509033203 | 59 | 34 | 0.0 | 0.0 | 0.00 | 0.00 | 0.02 | 55 | 1016.3 |
| 20260509032704 | 59 | 34 | 0.0 | 0.0 | 0.00 | 0.00 | 0.02 | 54 | 1016.2 |
| 20260509031704 | 60 | 34 | 0.0 | 0.0 | 0.00 | 0.00 | 0.02 | 52 | 1016.1 |
| 20260509031203 | 61 | 34 | 0.0 | 0.0 | 0.00 | 0.00 | 0.02 | 51 | 1016.0 |
| 20260509030704 | 61 | 34 | 0.0 | 0.0 | 0.00 | 0.00 | 0.02 | 50 | 1015.9 |
| 20260509030204 | 61 | 34 | 0.0 | 0.0 | 0.00 | 0.00 | 0.02 | 49 | 1015.8 |
| 20260509025703 | 62 | 34 | 0.0 | 0.0 | 0.00 | 0.00 | 0.02 | 48 | 1015.7 |
| 20260509025204 | 62 | 34 | 0.0 | 0.0 | 0.00 | 0.00 | 0.02 | 47 | 1015.7 |
| 20260509024703 | 63 | 34 | 0.0 | 0.0 | 0.00 | 0.00 | 0.02 | 47 | 1015.6 |
| 20260509024203 | 63 | 34 | 0.0 | 0.0 | 0.00 | 0.00 | 0.02 | 46 | 1015.6 |
| 20260509023704 | 63 | 34 | 0.0 | 0.0 | 0.00 | 0.00 | 0.02 | 45 | 1015.7 |
| 20260509022703 | 64 | 34 | 0.0 | 0.0 | 0.00 | 0.00 | 0.02 | 45 | 1015.5 |
| 20260509022203 | 64 | 34 | 0.0 | 0.0 | 0.00 | 0.00 | 0.02 | 43 | 1015.5 |
| 20260509021703 | 64 | 34 | 0.0 | 0.0 | 0.00 | 0.00 | 0.02 | 43 | 1015.5 |
| 20260509021203 | 65 | 34 | 0.0 | 0.0 | 0.00 | 0.00 | 0.02 | 42 | 1015.4 |
| 20260509020703 | 65 | 34 | 0.0 | 0.0 | 0.00 | 0.00 | 0.02 | 42 | 1015.3 |
| 20260509020203 | 65 | 34 | 0.0 | 0.0 | 0.00 | 0.00 | 0.02 | 41 | 1015.3 |
| 20260509015703 | 65 | 34 | 0.0 | 0.0 | 0.00 | 0.00 | 0.02 | 41 | 1015.3 |
| 20260509015203 | 66 | 34 | 0.0 | 1.0 | 0.00 | 0.00 | 0.02 | 41 | 1015.2 |
| 20260509014703 | 66 | 34 | 0.0 | 0.0 | 0.00 | 0.00 | 0.02 | 40 | 1015.2 |
| 20260509014204 | 66 | 34 | 0.0 | 2.0 | 0.00 | 0.00 | 0.02 | 40 | 1015.2 |
| 20260509013703 | 66 | 104 | 0.0 | 2.0 | 0.00 | 0.00 | 0.02 | 40 | 1015.1 |
| 20260509013203 | 67 | 14 | 0.0 | 0.0 | 0.00 | 0.00 | 0.02 | 40 | 1015.1 |
| 20260509012703 | 67 | 14 | 0.0 | 0.0 | 0.00 | 0.00 | 0.02 | 40 | 1015.1 |
| 20260509012204 | 67 | 14 | 0.0 | 2.0 | 0.00 | 0.00 | 0.02 | 38 | 1015.1 |
| 20260509011203 | 68 | 14 | 0.0 | 1.0 | 0.00 | 0.00 | 0.02 | 38 | 1015.1 |
| 20260509010703 | 68 | 14 | 2.0 | 3.0 | 0.00 | 0.00 | 0.02 | 38 | 1015.0 |
| 20260509010203 | 69 | 38 | 1.0 | 2.0 | 0.00 | 0.00 | 0.02 | 37 | 1015.0 |
| 20260509005702 | 69 | 38 | 1.0 | 3.0 | 0.00 | 0.00 | 0.02 | 38 | 1014.9 |
| 20260509005203 | 69 | 46 | 1.0 | 3.0 | 0.00 | 0.00 | 0.02 | 37 | 1015.0 |
| 20260509004703 | 69 | 53 | 1.0 | 3.0 | 0.00 | 0.00 | 0.02 | 37 | 1015.0 |
| 20260509004203 | 69 | 98 | 1.0 | 3.0 | 0.00 | 0.00 | 0.02 | 36 | 1015.0 |
| 20260509003703 | 70 | 88 | 1.0 | 3.0 | 0.00 | 0.00 | 0.02 | 38 | 1015.0 |
| 20260509002704 | 70 | 101 | 2.0 | 3.0 | 0.00 | 0.00 | 0.02 | 35 | 1015.0 |
| 20260509002203 | 70 | 58 | 0.0 | 2.0 | 0.00 | 0.00 | 0.02 | 35 | 1015.0 |
| 20260509001703 | 70 | 44 | 1.0 | 5.0 | 0.00 | 0.00 | 0.02 | 34 | 1014.9 |
| 20260509000704 | 71 | 104 | 1.0 | 3.0 | 0.00 | 0.00 | 0.02 | 35 | 1015.0 |
| 20260509000204 | 71 | 45 | 1.0 | 3.0 | 0.00 | 0.00 | 0.02 | 36 | 1015.0 |
| 20260508235703 | 71 | 101 | 0.0 | 3.0 | 0.00 | 0.00 | 0.02 | 35 | 1015.0 |
| 20260508235203 | 71 | 114 | 1.0 | 3.0 | 0.00 | 0.00 | 0.02 | 35 | 1015.1 |
| 20260508234703 | 71 | 45 | 1.0 | 3.0 | 0.00 | 0.00 | 0.02 | 35 | 1015.1 |
| 20260508233703 | 71 | 144 | 1.0 | 6.0 | 0.00 | 0.00 | 0.02 | 35 | 1015.0 |
| 20260508233203 | 71 | 191 | 1.0 | 5.0 | 0.00 | 0.00 | 0.02 | 35 | 1015.1 |
| 20260508232703 | 72 | 171 | 1.0 | 7.0 | 0.00 | 0.00 | 0.02 | 34 | 1015.1 |
| 20260508232203 | 72 | 174 | 1.0 | 6.0 | 0.00 | 0.00 | 0.02 | 37 | 1015.1 |
| 20260508231703 | 71 | 70 | 1.0 | 3.0 | 0.00 | 0.00 | 0.02 | 34 | 1015.1 |
| 20260508231203 | 72 | 23 | 1.0 | 3.0 | 0.00 | 0.00 | 0.02 | 33 | 1015.1 |
| 20260508230203 | 72 | 104 | 1.0 | 3.0 | 0.00 | 0.00 | 0.02 | 35 | 1015.1 |
| 20260508225703 | 72 | 79 | 1.0 | 3.0 | 0.00 | 0.00 | 0.02 | 33 | 1015.2 |
| 20260508225203 | 72 | 49 | 1.0 | 3.0 | 0.00 | 0.00 | 0.02 | 37 | 1015.2 |
| 20260508224703 | 71 | 5 | 3.0 | 6.0 | 0.00 | 0.01 | 0.02 | 34 | 1015.2 |
| 20260508224203 | 71 | 138 | 1.0 | 2.0 | 0.00 | 0.01 | 0.02 | 36 | 1015.2 |
| 20260508223702 | 71 | 121 | 0.0 | 5.0 | 0.00 | 0.01 | 0.02 | 35 | 1015.3 |
| 20260508223203 | 71 | 56 | 3.0 | 5.0 | 0.00 | 0.01 | 0.02 | 35 | 1015.4 |
| 20260508222703 | 70 | 117 | 3.0 | 8.0 | 0.00 | 0.01 | 0.02 | 36 | 1015.3 |
| 20260508222203 | 71 | 73 | 2.0 | 3.0 | 0.00 | 0.01 | 0.02 | 34 | 1015.3 |
| 20260508221703 | 71 | 82 | 0.0 | 3.0 | 0.00 | 0.01 | 0.02 | 36 | 1015.3 |
| 20260508221203 | 71 | 83 | 3.0 | 5.0 | 0.00 | 0.01 | 0.02 | 34 | 1015.4 |
| 20260508220702 | 70 | 145 | 1.0 | 3.0 | 0.00 | 0.01 | 0.02 | 37 | 1015.4 |
| 20260508220203 | 70 | 77 | 3.0 | 9.0 | 0.00 | 0.01 | 0.02 | 36 | 1015.5 |
| 20260508215703 | 70 | 52 | 2.0 | 7.0 | 0.00 | 0.01 | 0.02 | 36 | 1015.5 |
| 20260508215204 | 71 | 57 | 1.0 | 3.0 | 0.00 | 0.01 | 0.02 | 34 | 1015.5 |
| 20260508214703 | 70 | 65 | 2.0 | 3.0 | 0.00 | 0.01 | 0.02 | 35 | 1015.6 |
| 20260508214203 | 70 | 52 | 2.0 | 3.0 | 0.00 | 0.01 | 0.02 | 35 | 1015.6 |
| 20260508213703 | 70 | 59 | 2.0 | 5.0 | 0.00 | 0.01 | 0.02 | 36 | 1015.7 |
| 20260508212702 | 69 | 8 | 2.0 | 6.0 | 0.00 | 0.01 | 0.02 | 37 | 1015.7 |
| 20260508212203 | 69 | 350 | 2.0 | 7.0 | 0.00 | 0.01 | 0.02 | 36 | 1015.8 |
| 20260508211203 | 69 | 37 | 1.0 | 8.0 | 0.00 | 0.01 | 0.02 | 37 | 1015.8 |
| 20260508210202 | 69 | 63 | 1.0 | 6.0 | 0.00 | 0.01 | 0.02 | 37 | 1016.0 |
| 20260508205203 | 69 | 140 | 0.0 | 2.0 | 0.00 | 0.02 | 0.02 | 37 | 1016.1 |
| 20260508204703 | 69 | 84 | 1.0 | 5.0 | 0.00 | 0.02 | 0.02 | 37 | 1016.1 |
| 20260508204202 | 69 | 20 | 1.0 | 8.0 | 0.00 | 0.02 | 0.02 | 39 | 1016.2 |
| 20260508202703 | 68 | 47 | 2.0 | 6.0 | 0.00 | 0.02 | 0.02 | 40 | 1016.3 |
| 20260508202203 | 67 | 20 | 2.0 | 5.0 | 0.00 | 0.02 | 0.02 | 40 | 1016.4 |
| 20260508201703 | 67 | 107 | 2.0 | 6.0 | 0.00 | 0.02 | 0.02 | 42 | 1016.5 |
| 20260508200703 | 67 | 300 | 1.0 | 5.0 | 0.00 | 0.02 | 0.02 | 41 | 1016.6 |
| 20260508200202 | 67 | 69 | 2.0 | 5.0 | 0.00 | 0.02 | 0.02 | 40 | 1016.6 |
| 20260508195702 | 67 | 81 | 3.0 | 8.0 | 0.00 | 0.02 | 0.02 | 41 | 1016.6 |
| 20260508195203 | 67 | 25 | 3.0 | 9.0 | 0.00 | 0.02 | 0.02 | 41 | 1016.7 |
| 20260508194703 | 67 | 107 | 1.0 | 3.0 | 0.00 | 0.02 | 0.02 | 42 | 1016.8 |
| 20260508194203 | 66 | 5 | 1.0 | 3.0 | 0.00 | 0.02 | 0.02 | 43 | 1016.8 |
| 20260508193703 | 66 | 18 | 2.0 | 5.0 | 0.00 | 0.02 | 0.02 | 42 | 1016.9 |
| 20260508193203 | 66 | 96 | 2.0 | 6.0 | 0.00 | 0.02 | 0.02 | 43 | 1017.0 |
| 20260508192203 | 65 | 5 | 3.0 | 6.0 | 0.00 | 0.02 | 0.02 | 42 | 1017.0 |
| 20260508191703 | 66 | 67 | 1.0 | 7.0 | 0.00 | 0.02 | 0.02 | 43 | 1017.0 |
| 20260508191203 | 65 | 32 | 1.0 | 5.0 | 0.00 | 0.02 | 0.02 | 47 | 1017.1 |
| 20260508190702 | 65 | 107 | 2.0 | 6.0 | 0.00 | 0.02 | 0.02 | 45 | 1017.1 |
| 20260508190203 | 64 | 82 | 2.0 | 6.0 | 0.00 | 0.02 | 0.02 | 44 | 1017.2 |
| 20260508185703 | 64 | 33 | 5.0 | 12.0 | 0.00 | 0.02 | 0.02 | 44 | 1017.2 |
| 20260508185202 | 65 | 51 | 3.0 | 8.0 | 0.00 | 0.02 | 0.02 | 45 | 1017.2 |
| 20260508184203 | 65 | 296 | 1.0 | 5.0 | 0.00 | 0.02 | 0.02 | 44 | 1017.3 |
| 20260508182703 | 65 | 97 | 3.0 | 7.0 | 0.00 | 0.02 | 0.02 | 43 | 1017.3 |
| 20260508182202 | 64 | 52 | 2.0 | 7.0 | 0.00 | 0.02 | 0.02 | 43 | 1017.3 |
| 20260508181702 | 64 | 37 | 3.0 | 7.0 | 0.00 | 0.02 | 0.02 | 43 | 1017.5 |
| 20260508181203 | 64 | 114 | 2.0 | 8.0 | 0.00 | 0.02 | 0.02 | 44 | 1017.5 |
| 20260508180703 | 64 | 89 | 1.0 | 3.0 | 0.00 | 0.02 | 0.02 | 45 | 1017.6 |
| 20260508175703 | 64 | 85 | 5.0 | 9.0 | 0.00 | 0.02 | 0.02 | 43 | 1017.5 |
| 20260508175202 | 64 | 114 | 3.0 | 6.0 | 0.00 | 0.02 | 0.02 | 43 | 1017.5 |
| 20260508174703 | 64 | 119 | 2.0 | 7.0 | 0.00 | 0.02 | 0.02 | 46 | 1017.5 |
| 20260508174202 | 63 | 141 | 1.0 | 3.0 | 0.00 | 0.02 | 0.02 | 46 | 1017.6 |
| 20260508173703 | 63 | 54 | 3.0 | 7.0 | 0.00 | 0.02 | 0.02 | 47 | 1017.6 |
| 20260508172702 | 63 | 92 | 2.0 | 7.0 | 0.00 | 0.02 | 0.02 | 46 | 1017.7 |
| 20260508172203 | 63 | 111 | 2.0 | 10.0 | 0.00 | 0.02 | 0.02 | 46 | 1017.7 |
| 20260508171703 | 63 | 60 | 2.0 | 8.0 | 0.00 | 0.02 | 0.02 | 47 | 1017.7 |
| 20260508171202 | 63 | 41 | 2.0 | 6.0 | 0.00 | 0.02 | 0.02 | 47 | 1017.7 |
| 20260508170703 | 63 | 113 | 2.0 | 7.0 | 0.00 | 0.02 | 0.02 | 48 | 1017.8 |
| 20260508170202 | 63 | 99 | 1.0 | 6.0 | 0.00 | 0.02 | 0.02 | 49 | 1017.8 |
| 20260508165703 | 62 | 108 | 2.0 | 5.0 | 0.00 | 0.02 | 0.02 | 49 | 1017.7 |
| 20260508165202 | 62 | 83 | 2.0 | 5.0 | 0.00 | 0.02 | 0.02 | 48 | 1017.8 |
| 20260508164703 | 62 | 94 | 1.0 | 6.0 | 0.00 | 0.02 | 0.02 | 48 | 1017.8 |
| 20260508163702 | 62 | 61 | 1.0 | 6.0 | 0.00 | 0.02 | 0.02 | 53 | 1017.6 |
| 20260508162702 | 61 | 134 | 2.0 | 7.0 | 0.00 | 0.02 | 0.02 | 51 | 1017.8 |
| 20260508162202 | 61 | 114 | 2.0 | 6.0 | 0.00 | 0.02 | 0.02 | 52 | 1017.8 |